#timestamp,LO_Frequency,Hit,StdDev 
1512774015.7,286047001.6,P
1512774035.5,286047004.2,N
1512774055.3,286047002.0,N
1512774075.2,286047001.9,N
1512774095.9,286047006.7,N
1512774115.7,286047007.6,N
1512774135.6,286047007.6,N
1512774155.4,286047008.4,N
1512774175.2,286047013.5,Y
1512774195.1,286047014.3,P
1512774196.0,286047014.3,N
1512774215.8,286047015.7,P
1512774235.6,286047017.2,Y
1512774255.5,286047006.8,P
1512774275.3,286047005.4,N
1512774295.1,286047004.6,N
1512774315.9,286047007.0,N
1512774335.7,286047007.9,Y
1512774355.5,286047003.5,P
1512774375.4,286047006.6,P
1512774395.2,286047005.0,P
1512774415.0,286047008.8,Y
1512774415.9,286047008.8,P
1512774435.8,286047005.2,P
1512774455.6,286047004.8,N
1512774475.4,286047005.9,Y
1512774495.3,286047000.7,P
1512774515.1,286046997.3,N
1512774516.0,286046997.3,N
1512774535.8,286046997.8,N
1512774555.7,286047000.9,N
1512774575.5,286047002.0,N
1512774595.3,286047001.0,N
1512774615.2,286047002.2,N
1512774635.9,286047004.0,N
1512774655.7,286047002.5,N
1512774675.5,286046999.7,N
1512774695.4,286047000.8,N
1512774715.2,286047000.8,N
1512774735.0,286046999.0,N
1512774735.9,286046999.0,N
1512774755.8,286046995.2,N
1512774775.6,286046992.9,N
1512774795.4,286046991.4,N
1512774815.3,286046994.5,N
1512774835.1,286046996.7,N
1512774836.0,286046996.7,N
1512774855.8,286046999.4,N
1512774875.7,286046999.4,N
1512774895.5,286046996.7,N
1512774915.3,286046995.8,N
1512774935.2,286046998.0,N
1512774955.9,286046996.6,N
1512774975.7,286046996.0,N
1512774995.5,286046996.2,N
1512775015.4,286046997.6,N
1512775035.2,286046997.9,N
1512775055.0,286046997.3,N
1512775055.9,286046997.3,N
1512775075.8,286046999.2,N
1512775095.6,286046997.5,N
1512775115.4,286046997.7,N
1512775135.3,286046994.9,N
1512775155.1,286046995.5,N
1512775156.0,286046995.5,N
1512775175.8,286046993.4,N
1512775195.7,286046995.1,N
1512775215.5,286046993.8,N
1512775235.3,286046994.8,N
1512775255.2,286046995.0,N
1512775275.9,286046997.9,N
1512775295.7,286046998.8,N
1512775315.6,286046999.2,N
1512775335.4,286046998.7,N
1512775355.2,286046999.9,N
1512775375.0,286046999.1,N
1512775375.9,286046999.1,N
1512775395.8,286046997.9,N
1512775415.6,286046995.3,N
1512775435.4,286046999.5,N
1512775455.3,286046996.5,N
1512775475.1,286047000.6,N
1512775495.8,286047000.1,N
1512775515.7,286046999.7,N
1512775535.5,286046998.5,N
1512775555.3,286046996.7,N
1512775575.2,286046996.4,N
1512775595.9,286046986.9,Y
1512775615.7,286046989.9,P
1512775635.6,286046987.5,P
1512775655.4,286046986.1,P
1512775675.2,286046988.4,N
1512775695.1,286046986.1,Y
1512775696.0,286046986.1,P
1512775715.8,286046993.5,P
1512775735.6,286046996.7,N
1512775755.5,286046997.7,N
1512775775.3,286047000.7,N
1512775795.1,286046998.5,N
1512775815.9,286046998.3,N
1512775835.7,286046997.5,N
1512775855.5,286046998.6,N
1512775875.3,286047000.2,N
1512775895.2,286047001.2,N
1512775915.0,286046996.8,N
1512775915.9,286046996.8,N
1512775935.7,286047001.2,N
1512775955.6,286046999.7,N
1512775975.4,286046999.8,N
1512775995.2,286047000.5,N
1512776015.1,286047006.0,N
1512776016.0,286047006.0,N
1512776035.8,286047004.9,N
1512776055.6,286047005.8,N
1512776075.5,286047005.6,N
1512776095.3,286047004.5,N
1512776115.1,286047001.7,N
1512776135.9,286047002.1,N
1512776155.7,286047005.9,N
1512776175.5,286047002.3,N
1512776195.3,286047001.9,N
1512776215.2,286047002.8,N
1512776235.0,286047004.3,N
1512776235.9,286047004.3,N
1512776255.7,286047001.7,N
1512776275.6,286047005.5,N
1512776295.4,286047007.6,N
1512776315.2,286047008.3,N
1512776335.1,286047007.1,N
1512776336.0,286047007.1,N
1512776355.8,286047007.2,N
1512776375.6,286047008.9,N
1512776395.5,286047006.2,N
1512776415.3,286047009.8,Y
1512776435.1,286047004.8,P
1512776455.9,286047003.2,P
1512776475.7,286047003.7,P
1512776495.5,286047000.2,N
1512776515.3,286046996.7,N
1512776535.2,286047000.4,N
1512776555.0,286047002.3,N
1512776555.9,286047002.3,N
1512776575.7,286046998.9,N
1512776595.6,286047001.0,N
1512776615.4,286047000.9,N
1512776635.2,286047002.2,N
1512776655.1,286047003.2,N
1512776656.0,286047003.2,N
1512776675.8,286047002.1,N
1512776695.6,286046999.8,N
1512776715.5,286047001.9,N
1512776735.3,286047000.0,N
1512776755.1,286046999.4,N
1512776775.9,286046994.7,N
1512776795.7,286046991.8,Y
1512776815.5,286046992.4,P
1512776835.4,286046992.2,N
1512776855.2,286046993.2,N
1512776875.0,286046991.0,N
1512776875.9,286046991.0,N
1512776895.8,286046990.8,N
1512776915.6,286046992.4,N
1512776935.4,286046992.9,N
1512776955.2,286046994.7,N
1512776975.1,286046995.3,N
1512776976.0,286046995.3,N
1512776995.8,286047000.9,N
1512777015.6,286046998.1,N
1512777035.5,286046999.0,N
1512777055.3,286046993.8,N
1512777075.1,286046988.5,Y
1512777095.9,286046998.9,P
1512777115.7,286046998.3,N
1512777135.5,286046997.0,N
1512777155.4,286046996.3,N
1512777175.2,286046995.9,N
1512777195.0,286046996.3,N
1512777195.9,286046996.3,N
1512777215.8,286046997.9,N
1512777235.6,286046997.2,N
1512777255.4,286046997.7,N
1512777275.3,286046995.0,Y
1512777295.1,286046999.2,P
1512777296.0,286046999.2,N
1512777315.8,286047002.9,N
1512777335.7,286047005.7,N
1512777355.5,286047005.3,N
1512777375.3,286047003.1,N
1512777395.1,286047002.4,N
1512777415.9,286047003.1,N
1512777435.7,286047006.0,N
1512777455.5,286047001.6,N
1512777475.4,286047001.8,N
1512777495.2,286046998.1,N
1512777515.0,286046997.1,N
1512777515.9,286046997.1,N
1512777535.8,286046995.7,N
1512777555.6,286046997.2,N
1512777575.4,286046998.4,N
1512777595.3,286047001.2,N
